Location: Bronnegerveen
(52.9548°N, 6.8388°E)
Time: 02:14:36
(UTC+00:00)

Cosmos 2151 Rocket - Pass Details

Date: 15 June 2025
Orbit: 613 x 636 km, 82.5° (Epoch: 07 July)

Event Time Altitude Azimuth Distance (km) Brightness Sun altitude
Rises 00:14:06 0° 351° (N) 2,908 8.5 -13.2°
Reaches altitude 10° 00:16:23 10° 356° (N) 2,000 7.5 -13.2°
Maximum altitude 00:20:45 57° 75° (ENE) 737 4.1 -13.0°
Enters shadow 00:24:40 13° 154° (SSE) 1,823 5.5 -12.9°
